Miscellaneous Local Product
Issued by NWS North Platte, NE

Home | Current Version | Previous Version | Text Only | Print | Product List | Glossary On
Versions: 1 2 3 4 5 6 7 8 9 10 11 12 13 14 15 16 17 18 19 20 21 22 23 24 25 26 27 28 29 30 31 32 33 34 35 36 37 38 39 40 41 42 43 44 45 46 47 48 49 50
796
AXUS43 KLBF 241110
MISLBF


WESTERN AND NORTH CENTRAL NEBRASKA HOURLY WEATHER ROUNDUP
NATIONAL WEATHER SERVICE NORTH PLATTE NE
600 AM CDT WED AUG 24 2016

NOTE: "FAIR" INDICATES FEW OR NO CLOUDS BELOW 12,000 FEET WITH NO
SIGNIFICANT WEATHER AND/OR OBSTRUCTIONS TO VISIBILITY.

NOTE: STATIONS NOT REPORTING VARIABLES SUCH AS SKY/WEATHER OR
PRESSURE ARE PROVIDED BY RAWS AND APRS NETWORKS AND ARE NOT UNDER
NATIONAL WEATHER SERVICE QUALITY CONTROL.

...OBSERVATIONS IN AND NEAR THE EASTERN PANHANDLE OF NEBRASKA...

CITY           SKY/WX    TMP DP  RH WIND       PRES   REMARKS
PINE RIDGE     CLOUDY    40  39  97 CALM      30.12S
CHADRON        CLOUDY    47  37  68 W7        30.13R
ALLIANCE       PTCLDY    50  43  77 N7        30.13R
SIDNEY         CLOUDY    58  44  60 S6        30.16S
CRESCENT LAKE    N/A     58  38  47 NE3         N/A
$$

...OBSERVATIONS IN NORTHERN NEBRASKA AND FAR SOUTHERN SOUTH DAKOTA...

CITY           SKY/WX    TMP DP  RH WIND       PRES   REMARKS
WINNER         FAIR      58  42  55 SW6       30.05R
VALENTINE      CLOUDY    48  40  73 SW6       30.09R
THEDFORD       MOCLDY    51  44  78 W6        30.08F
AINSWORTH      PTCLDY    50  45  83 W6        30.08R
O`NEILL        CLOUDY    56  47  72 NW7       30.02R
ORD            PTCLDY    54  48  80 NW6       30.00R
BROKEN BOW     PTCLDY    56  47  71 N10       30.04R
VALENTINE NWR    N/A     51  44  76 CALM        N/A
BUTTE            N/A     58  47  66 W9          N/A
HALSEY           N/A     53  40  61 W3          N/A
$$

...OBSERVATIONS IN SOUTHWEST NEBRASKA AND FAR NORTHEAST COLORADO...

CITY           SKY/WX    TMP DP  RH WIND       PRES   REMARKS
HOLYOKE        FAIR      61  46  59 NE3       30.11F
IMPERIAL       MOCLDY    62  44  51 NE6       30.08S
OGALLALA       CLOUDY    64  38  38 E3        30.09R
NORTH PLATTE   CLOUDY    59  45  59 W6        30.07R
MCCOOK         CLOUDY    62  47  57 N8        30.04R
LEXINGTON      CLOUDY    55  51  87 W6        30.04R
STAPLETON        N/A     54  44  69 CALM        N/A
GOTHENBURG       N/A     56  46  70 W3          N/A
CALLAWAY         N/A     55  48  78 CALM        N/A
$$

...OBSERVATIONS IN CENTRAL LINCOLN COUNTY AREA...

CITY           SKY/WX    TMP DP  RH WIND       PRES   REMARKS
N.P. AIRPORT   CLOUDY    59  45  59 W6        30.07R
N.P. DOWNTOWN    N/A     62  45  54 CALM        N/A
N.P. SOUTHEAST   N/A     63  44  50 CALM        N/A
N.P. HILLCREST   N/A     62  44  52 NE12        N/A
$$

...SOME OBSERVATIONS FROM AROUND THE REGION...

CITY           SKY/WX    TMP DP  RH WIND       PRES   REMARKS
DENVER         CLOUDY    64  42  44 S12       30.16S
LARAMIE        CLOUDY    55  38  52 S6        30.24F
CHEYENNE       CLOUDY    58  41  53 CALM      30.19R
SCOTTSBLUFF    CLOUDY    57  42  57 NE6       30.14R
RAPID CITY     CLOUDY    61  41  47 N18       30.12S
BISMARCK       CLEAR     56  48  74 W9        29.98R
PIERRE         PTCLDY    56  46  69 NW14      30.02R
SIOUX FALLS    CLEAR     64  55  72 NW13      29.92R
OMAHA          MOCLDY    68  64  87 NW6       29.89S
GRAND ISLAND   CLOUDY    61  58  90 N6        29.99R
KANSAS CITY    CLOUDY    67  64  90 S14       29.96F
WICHITA        CLOUDY    76  68  76 S12       29.94R
OKLAHOMA CITY  MOCLDY    77  68  73 S15       30.01S
DALLAS         PTCLDY    76  70  82 S9        30.07S
AMARILLO       CLOUDY    68  63  84 SE7       30.11S
DODGE CITY     MOCLDY    72  61  68 W3        29.97R
HAYS           CLOUDY    68  54  60 NW5       29.94R
GOODLAND       CLOUDY    65  46  50 NE16      30.02F
$$




USA.gov is the U.S. government's official web portal to all federal, state and local government web resources and services.